| time (UTC) | temp C | wind direction | speed KPH | gust KPH | rain 1hr cm | rain 24hr cm | rain mn cm | humidity % | barometer mb |
| 20260904211523 | 25 | 244 | 4.8 | 12.9 | 0.00 | 0.28 | 0.28 | 83 | 1009.1 |
| 20260904210520 | 25 | 242 | 3.2 | 9.7 | 0.00 | 0.28 | 0.28 | 83 | 1009.0 |
| 20260904205557 | 25 | 242 | 6.4 | 12.9 | 0.00 | 0.28 | 0.28 | 84 | 1009.0 |
| 20260904204534 | 25 | 240 | 3.2 | 9.7 | 0.00 | 0.33 | 0.28 | 85 | 1008.9 |
| 20260904203530 | 25 | 242 | 6.4 | 12.9 | 0.00 | 0.38 | 0.28 | 86 | 1008.9 |
| 20260904202527 | 25 | 237 | 4.8 | 11.3 | 0.00 | 0.41 | 0.28 | 87 | 1009.0 |
| 20260904201546 | 25 | 241 | 3.2 | 9.7 | 0.00 | 0.61 | 0.28 | 87 | 1009.1 |
| 20260904200541 | 25 | 239 | 4.8 | 9.7 | 0.00 | 0.61 | 0.28 | 88 | 1009.3 |
| 20260904195518 | 25 | 235 | 6.4 | 11.3 | 0.00 | 0.61 | 0.28 | 89 | 1009.4 |
| 20260904194536 | 25 | 239 | 6.4 | 11.3 | 0.00 | 0.61 | 0.28 | 89 | 1009.6 |
| 20260904193532 | 24 | 238 | 6.4 | 11.3 | 0.00 | 0.61 | 0.28 | 90 | 1009.7 |
| 20260904192528 | 24 | 234 | 6.4 | 16.1 | 0.00 | 0.61 | 0.28 | 91 | 1009.9 |
| 20260904191526 | 25 | 226 | 4.8 | 11.3 | 0.00 | 0.61 | 0.28 | 92 | 1010.0 |
| 20260904190522 | 24 | 229 | 4.8 | 9.7 | 0.00 | 0.61 | 0.28 | 92 | 1010.0 |
| 20260904185539 | 24 | 232 | 6.4 | 14.5 | 0.00 | 0.61 | 0.28 | 93 | 1009.9 |
| 20260904184516 | 24 | 229 | 3.2 | 11.3 | 0.00 | 0.61 | 0.28 | 93 | 1010.0 |
| 20260904183553 | 23 | 214 | 4.8 | 11.3 | 0.00 | 0.61 | 0.28 | 93 | 1010.3 |
| 20260904182550 | 23 | 217 | 3.2 | 9.7 | 0.00 | 0.61 | 0.28 | 93 | 1010.2 |
| 20260904181527 | 23 | 190 | 1.6 | 4.8 | 0.00 | 0.61 | 0.28 | 93 | 1010.3 |
| 20260904180524 | 23 | 194 | 3.2 | 9.7 | 0.00 | 0.61 | 0.28 | 93 | 1010.4 |
| 20260904175521 | 23 | 146 | 3.2 | 9.7 | 0.00 | 0.61 | 0.28 | 93 | 1010.3 |
| 20260904174518 | 23 | 158 | 4.8 | 11.3 | 0.00 | 0.61 | 0.28 | 93 | 1010.5 |
| 20260904173535 | 23 | 171 | 3.2 | 6.4 | 0.00 | 0.61 | 0.28 | 93 | 1010.6 |
| 20260904172532 | 22 | 193 | 3.2 | 9.7 | 0.00 | 0.61 | 0.28 | 93 | 1011.0 |
| 20260904171529 | 22 | 213 | 3.2 | 6.4 | 0.00 | 0.61 | 0.28 | 93 | 1010.9 |
| 20260904170526 | 22 | 219 | 3.2 | 4.8 | 0.00 | 0.66 | 0.28 | 93 | 1011.0 |
| 20260904165522 | 22 | 140 | 3.2 | 4.8 | 0.00 | 0.66 | 0.28 | 93 | 1010.9 |
| 20260904164520 | 21 | 216 | 1.6 | 4.8 | 0.00 | 0.66 | 0.28 | 93 | 1011.1 |
| 20260904163518 | 21 | 219 | 3.2 | 6.4 | 0.00 | 0.66 | 0.28 | 93 | 1011.5 |
| 20260904162553 | 21 | 217 | 1.6 | 6.4 | 0.00 | 0.69 | 0.28 | 93 | 1011.4 |
| 20260904161532 | 22 | 217 | 3.2 | 4.8 | 0.03 | 0.71 | 0.28 | 93 | 1011.6 |
| 20260904160527 | 22 | 215 | 1.6 | 4.8 | 0.05 | 0.84 | 0.28 | 93 | 1011.8 |
| 20260904155524 | 21 | 149 | 3.2 | 6.4 | 0.10 | 0.89 | 0.28 | 93 | 1012.0 |
| 20260904154521 | 21 | 198 | 3.2 | 4.8 | 0.10 | 0.89 | 0.28 | 93 | 1012.4 |
| 20260904153518 | 21 | 210 | 1.6 | 4.8 | 0.10 | 0.89 | 0.28 | 93 | 1012.5 |
| 20260904152535 | 21 | 133 | 3.2 | 6.4 | 0.10 | 0.89 | 0.28 | 93 | 1012.2 |
| 20260904151552 | 21 | 147 | 0.0 | 6.4 | 0.10 | 0.86 | 0.25 | 93 | 1013.1 |
| 20260904150529 | 21 | 215 | 1.6 | 3.2 | 0.08 | 0.84 | 0.20 | 93 | 1013.3 |
| 20260904145526 | 20 | 218 | 3.2 | 6.4 | 0.13 | 0.79 | 0.18 | 93 | 1013.1 |
| 20260904144523 | 20 | 219 | 0.0 | 3.2 | 0.15 | 0.79 | 0.18 | 93 | 1012.7 |
| 20260904143520 | 20 | 221 | 0.0 | 3.2 | 0.15 | 0.79 | 0.15 | 93 | 1012.6 |
| 20260904142538 | 20 | 0.0 | 0.0 | 0.15 | 0.79 | 0.15 | 93 | 1012.5 | |
| 20260904140530 | 20 | 224 | 0.0 | 3.2 | 0.15 | 0.76 | 0.15 | 93 | 1012.4 |
| 20260904135548 | 20 | 0.0 | 0.0 | 0.05 | 0.69 | 0.05 | 93 | 1012.7 | |
| 20260904134524 | 20 | 224 | 0.0 | 3.2 | 0.03 | 0.66 | 0.03 | 93 | 1012.9 |
| 20260904133521 | 20 | 224 | 0.0 | 1.6 | 0.03 | 0.64 | 0.03 | 93 | 1012.7 |
| 20260904132519 | 20 | 224 | 1.6 | 3.2 | 0.00 | 0.64 | 0.00 | 93 | 1012.9 |
| 20260904131534 | 20 | 223 | 0.0 | 1.6 | 0.00 | 0.64 | 0.00 | 92 | 1012.7 |
| 20260904130532 | 20 | 223 | 0.0 | 1.6 | 0.00 | 0.61 | 0.00 | 92 | 1012.3 |
| 20260904125549 | 20 | 221 | 0.0 | 1.6 | 0.00 | 0.61 | 0.00 | 92 | 1012.1 |
| 20260904124547 | 20 | 123 | 1.6 | 4.8 | 0.00 | 0.61 | 0.00 | 93 | 1012.3 |
| 20260904123542 | 20 | 96 | 0.0 | 1.6 | 0.00 | 0.61 | 0.00 | 93 | 1012.0 |
| 20260904122601 | 20 | 100 | 0.0 | 4.8 | 0.00 | 0.61 | 0.00 | 93 | 1011.9 |
| 20260904121517 | 20 | 96 | 1.6 | 4.8 | 0.00 | 0.61 | 0.00 | 93 | 1012.2 |
| 20260904120533 | 20 | 0.0 | 0.0 | 0.00 | 0.61 | 0.00 | 93 | 1012.3 | |
| 20260904115530 | 20 | 0.0 | 0.0 | 0.00 | 0.61 | 0.00 | 92 | 1011.9 | |
| 20260904114527 | 20 | 95 | 0.0 | 1.6 | 0.00 | 0.61 | 0.00 | 92 | 1011.6 |
| 20260904113525 | 20 | 95 | 0.0 | 1.6 | 0.00 | 0.61 | 0.00 | 92 | 1011.8 |
| 20260904112521 | 20 | 95 | 0.0 | 3.2 | 0.00 | 0.61 | 0.00 | 92 | 1011.4 |
| 20260904111518 | 20 | 96 | 1.6 | 3.2 | 0.00 | 0.61 | 0.00 | 92 | 1011.4 |
| 20260904110534 | 20 | 97 | 1.6 | 3.2 | 0.00 | 0.61 | 0.00 | 92 | 1011.6 |
| 20260904105532 | 20 | 98 | 3.2 | 6.4 | 0.00 | 0.61 | 0.00 | 92 | 1011.4 |
| 20260904104529 | 20 | 144 | 3.2 | 9.7 | 0.00 | 0.61 | 0.00 | 92 | 1011.1 |
| 20260904103526 | 20 | 143 | 4.8 | 9.7 | 0.00 | 0.61 | 0.00 | 92 | 1011.1 |
| 20260904102522 | 20 | 164 | 1.6 | 1.6 | 0.00 | 0.61 | 0.00 | 92 | 1010.9 |
| 20260904101519 | 20 | 165 | 0.0 | 1.6 | 0.00 | 0.61 | 0.00 | 92 | 1010.8 |
| 20260904100516 | 20 | 175 | 0.0 | 1.6 | 0.00 | 0.61 | 0.00 | 92 | 1010.7 |
| 20260904095533 | 20 | 158 | 0.0 | 1.6 | 0.00 | 0.61 | 0.00 | 92 | 1010.2 |
| 20260904094532 | 20 | 0.0 | 0.0 | 0.00 | 0.61 | 0.00 | 92 | 1010.7 | |
| 20260904093527 | 20 | 0.0 | 0.0 | 0.00 | 0.61 | 0.00 | 92 | 1011.1 | |
| 20260904092524 | 20 | 0.0 | 0.0 | 0.00 | 0.61 | 0.00 | 92 | 1011.3 | |
| 20260904091521 | 20 | 0.0 | 0.0 | 0.00 | 0.61 | 0.00 | 92 | 1011.5 | |
| 20260904090518 | 20 | 0.0 | 0.0 | 0.00 | 0.61 | 0.00 | 92 | 1011.4 | |
| 20260904085535 | 20 | 0.0 | 0.0 | 0.00 | 0.61 | 0.00 | 92 | 1011.3 | |
| 20260904084532 | 20 | 157 | 0.0 | 3.2 | 0.00 | 0.61 | 0.00 | 92 | 1011.2 |
| 20260904083549 | 20 | 157 | 0.0 | 3.2 | 0.00 | 0.61 | 0.00 | 92 | 1011.3 |
| 20260904082526 | 20 | 171 | 1.6 | 3.2 | 0.00 | 0.61 | 0.00 | 92 | 1011.6 |
| 20260904081523 | 20 | 189 | 0.0 | 1.6 | 0.00 | 0.61 | 0.00 | 92 | 1011.5 |
| 20260904080520 | 20 | 169 | 1.6 | 6.4 | 0.00 | 0.61 | 0.00 | 92 | 1011.3 |
| 20260904075537 | 20 | 171 | 1.6 | 6.4 | 0.00 | 0.61 | 0.00 | 92 | 1011.2 |
| 20260904074534 | 20 | 197 | 1.6 | 6.4 | 0.00 | 0.61 | 0.00 | 92 | 1011.1 |
| 20260904073531 | 20 | 186 | 1.6 | 6.4 | 0.00 | 0.61 | 0.00 | 92 | 1010.9 |
| 20260904072528 | 19 | 193 | 1.6 | 4.8 | 0.00 | 0.64 | 0.00 | 92 | 1011.2 |
| 20260904071525 | 20 | 182 | 1.6 | 6.4 | 0.00 | 0.66 | 0.00 | 92 | 1011.3 |
| 20260904070521 | 19 | 178 | 3.2 | 6.4 | 0.00 | 0.66 | 0.00 | 92 | 1011.6 |
| 20260904065518 | 20 | 202 | 3.2 | 9.7 | 0.00 | 0.66 | 0.00 | 91 | 1011.7 |
| 20260904064515 | 20 | 199 | 3.2 | 11.3 | 0.00 | 0.69 | 0.00 | 92 | 1011.9 |
| 20260904063532 | 20 | 193 | 1.6 | 6.4 | 0.00 | 0.71 | 0.00 | 91 | 1011.8 |
| 20260904062529 | 20 | 0.0 | 0.0 | 0.00 | 0.71 | 0.00 | 91 | 1011.8 | |
| 20260904061526 | 20 | 202 | 0.0 | 3.2 | 0.00 | 0.71 | 0.00 | 91 | 1011.6 |
| 20260904060543 | 20 | 0.0 | 0.0 | 0.00 | 0.71 | 0.00 | 91 | 1011.6 | |
| 20260904055520 | 20 | 0.0 | 0.0 | 0.00 | 0.71 | 0.00 | 91 | 1011.7 | |
| 20260904054517 | 20 | 0.0 | 0.0 | 0.00 | 0.71 | 0.00 | 91 | 1011.9 | |
| 20260904053534 | 20 | 201 | 0.0 | 1.6 | 0.00 | 0.71 | 0.00 | 91 | 1012.0 |
| 20260904052551 | 20 | 0.0 | 0.0 | 0.00 | 0.71 | 0.00 | 91 | 1012.0 | |
| 20260904051528 | 20 | 0.0 | 0.0 | 0.00 | 0.81 | 0.00 | 91 | 1012.0 | |
| 20260904050544 | 20 | 0.0 | 0.0 | 0.00 | 0.84 | 0.00 | 91 | 1012.1 | |
| 20260904045521 | 20 | 0.0 | 0.0 | 0.00 | 0.84 | 0.00 | 91 | 1012.2 | |
| 20260904044538 | 20 | 0.0 | 0.0 | 0.00 | 0.84 | 0.00 | 91 | 1012.1 | |
| 20260904043515 | 20 | 0.0 | 0.0 | 0.00 | 0.84 | 0.00 | 91 | 1011.8 | |
| 20260904042532 | 20 | 0.0 | 0.0 | 0.00 | 0.84 | 0.00 | 91 | 1011.9 | |
| 20260904041549 | 20 | 254 | 0.0 | 1.6 | 0.00 | 0.84 | 0.00 | 91 | 1011.9 |
| 20260904040526 | 20 | 254 | 0.0 | 3.2 | 0.00 | 0.84 | 0.00 | 91 | 1011.8 |
| 20260904035525 | 20 | 0.0 | 0.0 | 0.00 | 0.84 | 0.86 | 91 | 1011.5 | |
| 20260904034520 | 20 | 0.0 | 0.0 | 0.00 | 0.84 | 0.86 | 91 | 1011.3 | |
| 20260904033517 | 20 | 0.0 | 0.0 | 0.00 | 0.94 | 0.86 | 91 | 1011.3 | |
| 20260904032535 | 20 | 0.0 | 0.0 | 0.00 | 1.04 | 0.86 | 91 | 1011.2 | |
| 20260904031530 | 20 | 254 | 0.0 | 3.2 | 0.00 | 1.27 | 0.86 | 91 | 1011.4 |
| 20260904030527 | 20 | 0.0 | 0.0 | 0.00 | 1.27 | 0.86 | 91 | 1011.1 | |
| 20260904025524 | 20 | 0.0 | 0.0 | 0.00 | 1.27 | 0.86 | 91 | 1011.2 | |
| 20260904024523 | 21 | 0.0 | 0.0 | 0.00 | 1.27 | 0.86 | 91 | 1011.1 | |
| 20260904023518 | 21 | 0.0 | 0.0 | 0.00 | 1.27 | 0.86 | 90 | 1011.2 | |
| 20260904022535 | 21 | 0.0 | 0.0 | 0.00 | 1.27 | 0.86 | 90 | 1011.2 | |
| 20260904021552 | 21 | 254 | 0.0 | 3.2 | 0.00 | 1.27 | 0.86 | 91 | 1011.1 |
| 20260904020529 | 21 | 0.0 | 0.0 | 0.00 | 1.27 | 0.86 | 91 | 1011.1 | |
| 20260904015526 | 21 | 254 | 0.0 | 1.6 | 0.00 | 1.27 | 0.86 | 91 | 1011.3 |
| 20260904014523 | 21 | 254 | 1.6 | 4.8 | 0.00 | 1.27 | 0.86 | 91 | 1011.2 |
| 20260904013539 | 21 | 251 | 0.0 | 1.6 | 0.00 | 1.27 | 0.86 | 90 | 1011.0 |
| 20260904012536 | 21 | 251 | 0.0 | 1.6 | 0.00 | 1.27 | 0.86 | 90 | 1010.9 |
| 20260904011533 | 21 | 0.0 | 0.0 | 0.00 | 1.27 | 0.86 | 90 | 1011.0 | |
| 20260904010530 | 21 | 248 | 0.0 | 3.2 | 0.00 | 1.27 | 0.86 | 90 | 1010.8 |
| 20260904005527 | 21 | 243 | 1.6 | 3.2 | 0.00 | 1.27 | 0.86 | 90 | 1010.6 |
| 20260904004524 | 21 | 245 | 1.6 | 3.2 | 0.00 | 1.27 | 0.86 | 90 | 1010.6 |
| 20260904003541 | 21 | 256 | 1.6 | 3.2 | 0.00 | 1.27 | 0.86 | 90 | 1010.7 |
| 20260904002517 | 21 | 254 | 1.6 | 4.8 | 0.00 | 1.27 | 0.86 | 90 | 1010.3 |
| 20260904001535 | 21 | 315 | 3.2 | 4.8 | 0.00 | 1.27 | 0.86 | 90 | 1010.0 |
| 20260904000532 | 21 | 341 | 3.2 | 6.4 | 0.00 | 1.27 | 0.86 | 90 | 1010.0 |
| 20260903235528 | 21 | 113 | 6.4 | 12.9 | 0.00 | 1.27 | 0.86 | 90 | 1009.3 |
| 20260903234525 | 21 | 133 | 8.0 | 16.1 | 0.00 | 1.27 | 0.86 | 90 | 1009.6 |
| 20260903233522 | 21 | 73 | 3.2 | 9.7 | 0.00 | 1.27 | 0.86 | 90 | 1009.5 |
| 20260903232519 | 21 | 25 | 3.2 | 4.8 | 0.00 | 1.27 | 0.86 | 89 | 1009.8 |
| 20260903231517 | 21 | 48 | 4.8 | 9.7 | 0.00 | 1.27 | 0.86 | 89 | 1009.7 |
| 20260903230532 | 21 | 55 | 3.2 | 9.7 | 0.00 | 1.27 | 0.86 | 89 | 1009.3 |
| 20260903225529 | 21 | 59 | 3.2 | 4.8 | 0.00 | 1.27 | 0.86 | 89 | 1010.0 |
| 20260903224526 | 21 | 57 | 3.2 | 4.8 | 0.00 | 1.27 | 0.86 | 89 | 1010.2 |
| 20260903223543 | 21 | 353 | 1.6 | 4.8 | 0.00 | 1.27 | 0.86 | 89 | 1010.5 |
| 20260903222519 | 21 | 39 | 1.6 | 4.8 | 0.00 | 1.27 | 0.86 | 89 | 1010.6 |
| 20260903221516 | 21 | 353 | 0.0 | 1.6 | 0.00 | 1.27 | 0.86 | 89 | 1010.8 |
| 20260903220555 | 21 | 354 | 1.6 | 3.2 | 0.00 | 1.27 | 0.86 | 89 | 1011.1 |
| 20260903215550 | 21 | 297 | 3.2 | 6.4 | 0.00 | 1.27 | 0.86 | 88 | 1011.4 |
| 20260903214527 | 21 | 341 | 3.2 | 9.7 | 0.05 | 1.27 | 0.86 | 88 | 1011.1 |
| 20260903213524 | 21 | 355 | 1.6 | 3.2 | 0.10 | 1.27 | 0.86 | 88 | 1010.7 |
| 20260903212542 | 21 | 345 | 1.6 | 3.2 | 0.13 | 1.27 | 0.86 | 88 | 1011.0 |